Location: Newark
(52.2090°N, 4.1550°W)
Time: 08:29:38
(UTC+00:00)

Explorer 7 - Pass Details

Date: 22 September 2019
Orbit: 485 x 680 km, 50.3° (Epoch: 17 October)

Event Time Altitude Azimuth Distance (km) Brightness Sun altitude
Rises 03:36:48 0° 282° (WNW) 2,975 - -21.9°
Reaches altitude 10° 03:39:16 10° 274° (W) 2,084 - -21.6°
Maximum altitude 03:43:38 35° 209° (SSW) 1,086 - -21.0°
Exits shadow 03:44:39 32° 183° (S) 1,164 8.1 -20.9°
Drops below altitude 10° 03:48:05 10° 144° (SE) 2,114 9.9 -20.4°
Sets 03:50:36 0° 136° (SE) 3,025 10.8 -20.1°
